User: anonymous   Login
Location: Morehead State University
(38.1872°N, 83.4339°W)
Time: 04:52:59
(UTC-05:00)
Language:

Okean 2 - Orbit

View from above orbital plane
View from above orbital plane
View from above satellite
View from above satellite

Ground track
Ground track

The orbit data is extracted from the following two-line orbital elements,

1 20510U 90018A   17347.53282122 +.00000453 +00000-0 +34986-4 0  9999
2 20510 082.5150 359.2332 0013896 096.1087 017.3479 14.99058938487192
Epoch (UTC): 13 December 2017 12:47:15
Eccentricity: 0.0013896
inclination: 82.5150°
perigee height: 560 km
apogee height: 579 km
right ascension of ascending node: 359.2332°
argument of perigee: 96.1087°
revolutions per day: 14.99058938
mean anomaly at epoch: 17.3479°
orbit number at epoch: 48719

The dashed part of the orbit path shows where the satellite is in the earth's shadow,  

DLR